Back to catalog

SL-14 DEB

AlivePO
NORAD 26023·DEBRIS·🇷🇺 Russia

Launched Sep 28, 1991 from Plesetsk Cosmodrome

Loading…

Next Passes (next 24 hours)

TLE

FreshSource: Space-Track

Epoch: Sep 13, 2026, 23:24 UTC

1 26023U 91068AJ  26256.97563458  .00000095  00000-0  54583-3 0  9997
2 26023  82.5729  78.5472 0007704  97.7945  56.3584 12.51413830598225

Track SL-14 DEB in real time with AllMySat

Download on the App Store